| time (UTC) | temp F | wind direction | speed knots | gust knots | rain 1hr in | rain 24hr in | rain mn in | humidity % | barometer mb |
| 20260507210735 | 53 | 306 | 4.3 | 4.3 | 0.00 | 0.00 | 0.24 | 84 | 1015.3 |
| 20260507205519 | 54 | 318 | 3.5 | 5.2 | 0.00 | 0.00 | 0.24 | 86 | 1015.4 |
| 20260507204338 | 54 | 296 | 3.5 | 5.2 | 0.00 | 0.00 | 0.24 | 88 | 1015.4 |
| 20260507203210 | 54 | 300 | 2.6 | 4.3 | 0.00 | 0.00 | 0.24 | 87 | 1015.3 |
| 20260507202043 | 53 | 321 | 3.5 | 3.5 | 0.00 | 0.00 | 0.24 | 87 | 1015.1 |
| 20260507200915 | 54 | 306 | 2.6 | 4.3 | 0.00 | 0.00 | 0.24 | 93 | 1015.1 |
| 20260507195748 | 55 | 330 | 2.6 | 6.1 | 0.00 | 0.00 | 0.24 | 84 | 1015.0 |
| 20260507194621 | 54 | 330 | 4.3 | 5.2 | 0.00 | 0.00 | 0.24 | 91 | 1014.9 |
| 20260507193506 | 54 | 278 | 3.5 | 5.2 | 0.00 | 0.00 | 0.24 | 88 | 1014.8 |
| 20260507192324 | 54 | 300 | 3.5 | 5.2 | 0.00 | 0.00 | 0.24 | 87 | 1014.6 |
| 20260507191156 | 54 | 302 | 4.3 | 4.3 | 0.00 | 0.00 | 0.24 | 89 | 1014.5 |
| 20260507190028 | 54 | 318 | 3.5 | 5.2 | 0.00 | 0.00 | 0.24 | 92 | 1014.3 |
| 20260507184901 | 54 | 306 | 3.5 | 4.3 | 0.00 | 0.00 | 0.24 | 94 | 1014.2 |
| 20260507183644 | 53 | 272 | 4.3 | 5.2 | 0.00 | 0.00 | 0.24 | 93 | 1014.0 |
| 20260507182503 | 53 | 288 | 4.3 | 4.3 | 0.00 | 0.00 | 0.24 | 99 | 1013.9 |
| 20260507181335 | 53 | 301 | 3.5 | 4.3 | 0.00 | 0.00 | 0.24 | 99 | 1013.8 |
| 20260507180208 | 53 | 306 | 3.5 | 3.5 | 0.00 | 0.00 | 0.24 | 99 | 1013.8 |
| 20260507175040 | 54 | 296 | 3.5 | 4.3 | 0.00 | 0.00 | 0.24 | 99 | 1013.8 |
| 20260507173823 | 54 | 300 | 3.5 | 3.5 | 0.00 | 0.00 | 0.24 | 97 | 1013.8 |
| 20260507172643 | 55 | 291 | 4.3 | 4.3 | 0.00 | 0.00 | 0.24 | 94 | 1013.8 |
| 20260507171515 | 55 | 306 | 2.6 | 3.5 | 0.00 | 0.00 | 0.24 | 96 | 1013.7 |
| 20260507170348 | 56 | 297 | 3.5 | 4.3 | 0.00 | 0.00 | 0.24 | 93 | 1013.8 |
| 20260507165220 | 56 | 301 | 3.5 | 3.5 | 0.00 | 0.00 | 0.24 | 91 | 1013.8 |
| 20260507164053 | 56 | 306 | 3.5 | 5.2 | 0.00 | 0.00 | 0.24 | 91 | 1013.8 |
| 20260507162926 | 57 | 295 | 4.3 | 4.3 | 0.00 | 0.00 | 0.24 | 89 | 1013.7 |
| 20260507161759 | 58 | 289 | 3.5 | 4.3 | 0.00 | 0.00 | 0.24 | 86 | 1013.6 |
| 20260507160618 | 58 | 288 | 2.6 | 4.3 | 0.00 | 0.00 | 0.24 | 87 | 1013.5 |
| 20260507155450 | 57 | 300 | 2.6 | 4.3 | 0.00 | 0.00 | 0.24 | 89 | 1013.5 |
| 20260507154323 | 58 | 276 | 5.2 | 5.2 | 0.02 | 0.00 | 0.24 | 82 | 1013.5 |
| 20260507153155 | 59 | 156 | 1.7 | 4.3 | 0.02 | 0.00 | 0.24 | 71 | 1013.3 |
| 20260507151940 | 56 | 240 | 3.5 | 3.5 | 0.05 | 0.00 | 0.24 | 89 | 1013.1 |
| 20260507150758 | 56 | 144 | 1.7 | 2.6 | 0.05 | 0.00 | 0.24 | 91 | 1013.0 |
| 20260507145630 | 55 | 300 | 1.7 | 5.2 | 0.05 | 0.00 | 0.24 | 92 | 1012.4 |
| 20260507144503 | 56 | 322 | 3.5 | 6.1 | 0.05 | 0.00 | 0.24 | 92 | 1012.6 |
| 20260507143336 | 57 | 96 | 4.3 | 7.8 | 0.03 | 0.00 | 0.22 | 79 | 1012.6 |
| 20260507142119 | 59 | 6 | 7.0 | 16.5 | 0.00 | 0.00 | 0.19 | 69 | 1012.3 |
| 20260507140938 | 58 | 277 | 3.5 | 4.3 | 0.00 | 0.00 | 0.19 | 91 | 1012.2 |
| 20260507135810 | 59 | 300 | 3.5 | 3.5 | 0.00 | 0.00 | 0.19 | 88 | 1012.0 |
| 20260507134643 | 60 | 300 | 3.5 | 5.2 | 0.00 | 0.00 | 0.19 | 84 | 1011.9 |
| 20260507133516 | 61 | 285 | 3.5 | 3.5 | 0.00 | 0.00 | 0.19 | 82 | 1012.0 |
| 20260507132259 | 63 | 252 | 1.7 | 3.5 | 0.00 | 0.00 | 0.19 | 83 | 1012.1 |
| 20260507131117 | 65 | 216 | 1.7 | 4.3 | 0.00 | 0.00 | 0.19 | 71 | 1012.2 |
| 20260507125949 | 66 | 102 | 1.7 | 4.3 | 0.00 | 0.00 | 0.19 | 57 | 1012.3 |
| 20260507124821 | 68 | 198 | 0.0 | 3.5 | 0.00 | 0.00 | 0.19 | 50 | 1012.3 |
| 20260507123654 | 67 | 30 | 1.7 | 3.5 | 0.00 | 0.00 | 0.19 | 58 | 1012.2 |
| 20260507122437 | 65 | 96 | 1.7 | 4.3 | 0.00 | 0.00 | 0.19 | 49 | 1012.2 |
| 20260507121256 | 64 | 222 | 4.3 | 4.3 | 0.00 | 0.00 | 0.19 | 68 | 1012.4 |
| 20260507120128 | 63 | 192 | 3.5 | 4.3 | 0.02 | 0.00 | 0.19 | 76 | 1012.4 |
| 20260507115001 | 61 | 204 | 1.7 | 4.3 | 0.02 | 0.00 | 0.19 | 81 | 1012.6 |
| 20260507113834 | 59 | 295 | 1.7 | 3.5 | 0.02 | 0.00 | 0.19 | 94 | 1012.5 |
| 20260507112617 | 60 | 288 | 2.6 | 4.3 | 0.03 | 0.00 | 0.19 | 92 | 1012.5 |
| 20260507111436 | 61 | 282 | 2.6 | 2.6 | 0.03 | 0.00 | 0.19 | 89 | 1012.6 |
| 20260507110308 | 61 | 291 | 3.5 | 3.5 | 0.09 | 0.00 | 0.19 | 81 | 1012.7 |
| 20260507105141 | 62 | 315 | 1.7 | 3.5 | 0.11 | 0.00 | 0.19 | 83 | 1012.8 |
| 20260507104014 | 61 | 318 | 1.7 | 2.6 | 0.17 | 0.00 | 0.19 | 93 | 1012.9 |
| 20260507102757 | 58 | 290 | 1.7 | 4.3 | 0.19 | 0.00 | 0.19 | 92 | 1012.9 |
| 20260507101616 | 57 | 311 | 2.6 | 4.3 | 0.19 | 0.00 | 0.19 | 97 | 1013.0 |
| 20260507100449 | 57 | 306 | 3.5 | 3.5 | 0.14 | 0.00 | 0.14 | 96 | 1013.1 |
| 20260507095320 | 57 | 318 | 4.3 | 6.1 | 0.09 | 0.00 | 0.09 | 94 | 1013.1 |
| 20260507094152 | 59 | 306 | 7.0 | 7.8 | 0.05 | 0.00 | 0.05 | 89 | 1013.1 |
| 20260507092935 | 63 | 216 | 2.6 | 4.3 | 0.00 | 0.00 | 0.00 | 74 | 1013.0 |
| 20260507091758 | 64 | 121 | 7.0 | 7.8 | 0.00 | 0.00 | 0.00 | 72 | 1012.6 |
| 20260507090627 | 64 | 192 | 5.2 | 6.1 | 0.00 | 0.00 | 0.00 | 72 | 1012.7 |
| 20260507085459 | 62 | 138 | 3.5 | 7.0 | 0.00 | 0.00 | 0.00 | 77 | 1012.7 |
| 20260507084332 | 62 | 126 | 4.3 | 6.1 | 0.00 | 0.00 | 0.00 | 73 | 1012.7 |
| 20260507083115 | 62 | 168 | 3.5 | 6.1 | 0.00 | 0.00 | 0.00 | 76 | 1012.7 |
| 20260507081934 | 62 | 126 | 1.7 | 6.1 | 0.00 | 0.00 | 0.00 | 78 | 1012.6 |
| 20260507080807 | 60 | 168 | 3.5 | 7.8 | 0.00 | 0.00 | 0.00 | 80 | 1012.6 |
| 20260507075639 | 60 | 90 | 1.7 | 3.5 | 0.00 | 0.00 | 0.00 | 83 | 1012.6 |
| 20260507074512 | 60 | 192 | 1.7 | 1.7 | 0.00 | 0.00 | 0.00 | 83 | 1012.6 |
| 20260507073255 | 59 | 104 | 1.7 | 4.3 | 0.00 | 0.00 | 0.00 | 84 | 1012.6 |
| 20260507072114 | 60 | 120 | 1.7 | 6.1 | 0.00 | 0.00 | 0.00 | 80 | 1012.5 |
| 20260507070947 | 61 | 108 | 6.1 | 6.1 | 0.00 | 0.00 | 0.00 | 81 | 1012.4 |
| 20260507065819 | 61 | 96 | 3.5 | 4.3 | 0.00 | 0.00 | 0.00 | 77 | 1012.3 |
| 20260507064651 | 62 | 294 | 1.7 | 2.6 | 0.00 | 0.00 | 0.00 | 77 | 1012.3 |
| 20260507063435 | 59 | 258 | 1.7 | 1.7 | 0.00 | 0.00 | 0.00 | 82 | 1012.2 |
| 20260507062254 | 58 | 258 | 0.0 | 1.7 | 0.00 | 0.00 | 0.00 | 86 | 1012.1 |
| 20260507061127 | 57 | 258 | 0.0 | 1.7 | 0.00 | 0.00 | 0.00 | 92 | 1012.1 |
| 20260507055959 | 57 | 258 | 1.7 | 1.7 | 0.00 | 0.00 | 0.00 | 95 | 1012.1 |
| 20260507054831 | 57 | 180 | 2.6 | 2.6 | 0.00 | 0.00 | 0.00 | 90 | 1011.9 |
| 20260507053615 | 57 | 168 | 1.7 | 3.5 | 0.00 | 0.00 | 0.00 | 86 | 1011.7 |
| 20260507052434 | 56 | 18 | 2.6 | 4.3 | 0.00 | 0.00 | 0.00 | 90 | 1011.5 |
| 20260507051306 | 55 | 289 | 1.7 | 6.1 | 0.00 | 0.00 | 0.00 | 87 | 1011.4 |
| 20260507050138 | 55 | 296 | 1.7 | 7.0 | 0.00 | 0.00 | 0.00 | 91 | 1011.4 |
| 20260507045011 | 54 | 336 | 2.6 | 4.3 | 0.00 | 0.00 | 0.00 | 90 | 1011.1 |
| 20260507043754 | 53 | 294 | 1.7 | 5.2 | 0.00 | 0.00 | 0.00 | 91 | 1010.9 |
| 20260507042613 | 54 | 314 | 2.6 | 6.1 | 0.00 | 0.00 | 0.00 | 93 | 1011.0 |
| 20260507041446 | 54 | 348 | 4.3 | 6.1 | 0.00 | 0.00 | 0.00 | 92 | 1011.0 |
| 20260507040318 | 54 | 306 | 5.2 | 5.2 | 0.00 | 0.00 | 0.00 | 94 | 1011.0 |
| 20260507035151 | 54 | 348 | 2.6 | 5.2 | 0.00 | 0.00 | 0.00 | 94 | 1011.1 |
| 20260507033934 | 53 | 296 | 2.6 | 4.3 | 0.00 | 0.00 | 0.00 | 98 | 1011.0 |
| 20260507032754 | 53 | 289 | 4.3 | 4.3 | 0.00 | 0.00 | 0.00 | 95 | 1010.9 |
| 20260507031626 | 52 | 321 | 1.7 | 1.7 | 0.00 | 0.00 | 0.00 | 99 | 1010.9 |
| 20260507030500 | 53 | 318 | 1.7 | 2.6 | 0.00 | 0.00 | 0.00 | 99 | 1010.9 |
| 20260507025331 | 53 | 306 | 3.5 | 3.5 | 0.00 | 0.00 | 0.00 | 98 | 1010.9 |
| 20260507024115 | 53 | 306 | 1.7 | 3.5 | 0.00 | 0.00 | 0.00 | 99 | 1010.8 |
| 20260507022933 | 53 | 306 | 2.6 | 2.6 | 0.00 | 0.00 | 0.00 | 99 | 1010.9 |
| 20260507021805 | 54 | 314 | 3.5 | 3.5 | 0.00 | 0.00 | 0.00 | 99 | 1010.8 |
| 20260507020638 | 54 | 301 | 3.5 | 5.2 | 0.00 | 0.00 | 0.00 | 97 | 1010.9 |
| 20260507015510 | 54 | 318 | 3.5 | 3.5 | 0.00 | 0.00 | 0.00 | 98 | 1010.8 |
| 20260507014254 | 54 | 341 | 4.3 | 4.3 | 0.00 | 0.00 | 0.00 | 98 | 1010.9 |
| 20260507013112 | 55 | 322 | 3.5 | 4.3 | 0.00 | 0.00 | 0.00 | 97 | 1010.9 |
| 20260507011945 | 55 | 318 | 1.7 | 3.5 | 0.00 | 0.00 | 0.00 | 99 | 1010.8 |
| 20260507010817 | 55 | 306 | 2.6 | 3.5 | 0.00 | 0.00 | 0.00 | 99 | 1010.9 |
| 20260507005650 | 55 | 303 | 1.7 | 4.3 | 0.00 | 0.00 | 0.00 | 99 | 1010.9 |
| 20260507004433 | 55 | 300 | 1.7 | 2.6 | 0.00 | 0.00 | 0.00 | 99 | 1010.9 |
| 20260507003252 | 55 | 300 | 1.7 | 3.5 | 0.00 | 0.00 | 0.00 | 99 | 1010.9 |
| 20260507002125 | 55 | 318 | 2.6 | 2.6 | 0.00 | 0.00 | 0.00 | 99 | 1010.9 |
| 20260507000957 | 55 | 321 | 1.7 | 3.5 | 0.00 | 0.00 | 0.00 | 99 | 1011.0 |
| 20260506235830 | 55 | 318 | 1.7 | 3.5 | 0.00 | 0.00 | 0.00 | 99 | 1011.0 |
| 20260506234613 | 55 | 306 | 2.6 | 2.6 | 0.03 | 0.00 | 0.00 | 99 | 1011.0 |
| 20260506233433 | 55 | 306 | 2.6 | 2.6 | 0.03 | 0.00 | 0.00 | 99 | 1011.0 |
| 20260506232306 | 54 | 306 | 1.7 | 1.7 | 0.03 | 0.00 | 0.00 | 99 | 1011.1 |
| 20260506231137 | 54 | 306 | 1.7 | 2.6 | 0.05 | 0.00 | 0.00 | 99 | 1011.2 |
| 20260506230009 | 54 | 306 | 2.6 | 2.6 | 0.17 | 0.00 | 0.00 | 99 | 1011.2 |
| 20260506224753 | 54 | 306 | 1.7 | 3.5 | 0.39 | 0.00 | 2.27 | 99 | 1011.2 |
| 20260506223612 | 55 | 300 | 2.6 | 3.5 | 0.41 | 0.00 | 2.27 | 99 | 1011.2 |
| 20260506222444 | 55 | 300 | 2.6 | 2.6 | 0.41 | 0.00 | 2.27 | 99 | 1011.1 |
| 20260506221317 | 55 | 313 | 2.6 | 3.5 | 0.41 | 0.00 | 2.27 | 99 | 1011.1 |
| 20260506220149 | 55 | 313 | 3.5 | 3.5 | 0.28 | 0.00 | 2.15 | 99 | 1011.2 |
| 20260506214932 | 55 | 314 | 1.7 | 1.7 | 0.05 | 0.00 | 1.92 | 99 | 1011.1 |
| 20260506213752 | 55 | 311 | 1.7 | 4.3 | 0.00 | 0.00 | 1.87 | 98 | 1011.0 |
| 20260506212624 | 55 | 12 | 1.7 | 3.5 | 0.00 | 0.00 | 1.87 | 99 | 1011.0 |
| 20260506211457 | 55 | 264 | 1.7 | 1.7 | 0.00 | 0.00 | 1.87 | 99 | 1011.1 |